カタログに戻る

OPS 7202

DMSP 4A F3

運用中気象SSO
NORAD 2920·PAYLOAD·🇺🇸 United States

打ち上げ Aug 23, 1967 から Vandenberg Space Force Base

Loading…

次のパス (今後24時間)

TLE

最新Source: Space-Track

元期: Sep 13, 2026, 23:52 UTC

1 02920U 67080A   26256.99494104  .00000018  00000-0  30233-4 0  9999
2 02920  98.5772 103.5845 0039041 101.9060 258.6496 14.15322970 45275

AllMySatでOPS 7202をリアルタイム追跡

Download on the App Store